User: anonymous   Login
Location: Ash Swamp
(41.5170°N, 74.6157°W)
Time: 11:46:57
(UTC+00:00)
Language:

Cosmos 1674 Rocket - Orbit

View from above orbital plane
View from above orbital plane
View from above satellite
View from above satellite

Ground track
Ground track

The orbit data is extracted from the following two-line orbital elements,

1 15945U 85069B   20270.79865530 +.00000087 +00000-0 +75659-5 0  9998
2 15945 082.5246 091.3557 0018252 291.1305 068.7959 14.84045669877566
Epoch (UTC): 26 September 2020 19:10:03
Eccentricity: 0.0018252
inclination: 82.5246°
perigee height: 604 km
apogee height: 629 km
right ascension of ascending node: 91.3557°
argument of perigee: 291.1305°
revolutions per day: 14.84045669
mean anomaly at epoch: 68.7959°
orbit number at epoch: 87756

The dashed part of the orbit path shows where the satellite is in the earth's shadow,  

DLR